Tracking 19796 objects as of 19-Jul-2019
HD Live streaming from Space Station
objects crossing your sky now

SBIRS GEO 3 (USA 273)

Track SBIRS GEO 3 (USA 273) now!


NORAD ID: 41937
Int'l Code: 2017-004A
Perigee: 35,781.8 km
Apogee: 35,805.1 km
Inclination: 4.5 °
Period: 1,436.1 minutes
Semi major axis: 42164 km
RCS: Unknown
Launch date: January 21, 2017
Source: United States (US)
Launch site: AIR FORCE EASTERN TEST RANGE (AFETR)
aabbcc
Your satellite tracking list
Your tracking list is empty




NASA's NSSDC Master Catalog

Two Line Element Set (TLE):
1 41937U 17004A   19199.69332694  .00000124  00000-0  00000+0 0  9993
2 41937   4.4570 312.2223 0002760 163.5075 270.6625  1.00272734  9275
Source of the keplerian elements: McCants